• In Deutschland
  • Länderverzeichnis
  • Für 7 Tage
  • Wassertemperatur
  • Satellitenkarten
  • Wetterkarte
  • Widgets
  • user-avatar
    Anmelden

    Stündliche Wetter Tbilissi

    Heute, 18 Februar, Sonntag

    Zeit Temperatur Niederschläge Wind Luftdruck Luftfeuchtigkeit
    00:00 +4°C° 0 mm 0 m/S 701 mmHg 70%
    01:00 +4°C° 0 mm 0 m/S 700 mmHg 72%
    02:00 +4°C° 0 mm 0 m/S 700 mmHg 73%
    03:00 +5°C° 0 mm 1 m/S 700 mmHg 66%
    04:00 +4°C° 0 mm 0 m/S 700 mmHg 68%
    05:00 +4°C° 0 mm 0 m/S 700 mmHg 69%
    06:00 +4°C° 0 mm 0 m/S 699 mmHg 70%
    07:00 +4°C° 0,1 mm 0 m/S 699 mmHg 68%
    08:00 +5°C° 0,1 mm 0 m/S 699 mmHg 66%
    09:00 +6°C° 0 mm 0 m/S 699 mmHg 63%
    10:00 +7°C° 0,1 mm 1 m/S 699 mmHg 62%
    11:00 +8°C° 0,1 mm 1 m/S 699 mmHg 60%
    12:00 +8°C° 0,1 mm 1 m/S 699 mmHg 58%
    13:00 +9°C° 0,1 mm 1 m/S 698 mmHg 59%
    14:00 +9°C° 0,1 mm 1 m/S 698 mmHg 59%
    15:00 +9°C° 0 mm 1 m/S 698 mmHg 58%
    16:00 +8°C° 0,1 mm 1 m/S 698 mmHg 61%
    17:00 +8°C° 0,1 mm 1 m/S 698 mmHg 64%
    18:00 +7°C° 0,1 mm 1 m/S 698 mmHg 68%
    19:00 +7°C° 0,2 mm 1 m/S 699 mmHg 70%
    20:00 +7°C° 0,2 mm 1 m/S 699 mmHg 73%
    21:00 +6°C° 0,2 mm 1 m/S 699 mmHg 75%
    22:00 +6°C° 0,2 mm 1 m/S 699 mmHg 75%
    23:00 +6°C° 0,2 mm 1 m/S 699 mmHg 75%

    Morgen, 19 Februar, Montag

    Zeit Temperatur Niederschläge Wind Luftdruck Luftfeuchtigkeit
    00:00 +6°C° 0,2 mm 1 m/S 699 mmHg 75%
    01:00 +5°C° 0,1 mm 2 m/S 699 mmHg 75%
    02:00 +5°C° 0,1 mm 2 m/S 699 mmHg 75%
    03:00 +4°C° 0,1 mm 2 m/S 699 mmHg 75%
    04:00 +5°C° 0 mm 1 m/S 699 mmHg 76%
    05:00 +5°C° 0 mm 1 m/S 699 mmHg 77%
    06:00 +5°C° 0 mm 1 m/S 699 mmHg 77%
    07:00 +5°C° 0 mm 1 m/S 700 mmHg 74%
    08:00 +5°C° 0 mm 2 m/S 700 mmHg 71%
    09:00 +6°C° 0 mm 2 m/S 700 mmHg 68%
    10:00 +6°C° 0 mm 2 m/S 700 mmHg 64%
    11:00 +7°C° 0 mm 2 m/S 700 mmHg 60%
    12:00 +8°C° 0 mm 2 m/S 700 mmHg 56%
    13:00 +9°C° 0 mm 2 m/S 700 mmHg 54%
    14:00 +9°C° 0 mm 2 m/S 699 mmHg 53%
    15:00 +10°C° 0 mm 2 m/S 699 mmHg 51%
    16:00 +9°C° 0 mm 2 m/S 699 mmHg 56%
    17:00 +8°C° 0 mm 2 m/S 700 mmHg 61%
    18:00 +8°C° 0 mm 1 m/S 700 mmHg 65%
    19:00 +7°C° 0 mm 1 m/S 700 mmHg 68%
    20:00 +6°C° 0 mm 1 m/S 700 mmHg 70%
    21:00 +6°C° 0 mm 1 m/S 701 mmHg 73%
    22:00 +5°C° 0 mm 1 m/S 701 mmHg 74%
    23:00 +5°C° 0 mm 1 m/S 701 mmHg 75%

    übermorgen, 20 Februar, Dienstag

    Zeit Temperatur Niederschläge Wind Luftdruck Luftfeuchtigkeit
    00:00 +4°C° 0 mm 1 m/S 701 mmHg 76%
    01:00 +4°C° 0 mm 1 m/S 701 mmHg 77%
    02:00 +4°C° 0 mm 1 m/S 701 mmHg 78%
    03:00 +4°C° 0 mm 1 m/S 701 mmHg 79%
    04:00 +4°C° 0 mm 1 m/S 701 mmHg 81%
    05:00 +3°C° 0 mm 1 m/S 701 mmHg 82%
    06:00 +3°C° 0 mm 1 m/S 701 mmHg 83%
    07:00 +4°C° 0 mm 1 m/S 701 mmHg 81%
    08:00 +5°C° 0 mm 1 m/S 701 mmHg 78%
    09:00 +6°C° 0 mm 1 m/S 701 mmHg 75%
    10:00 +6°C° 0 mm 1 m/S 701 mmHg 72%
    11:00 +6°C° 0 mm 2 m/S 700 mmHg 69%
    12:00 +7°C° 0 mm 2 m/S 700 mmHg 66%
    13:00 +7°C° 0 mm 2 m/S 700 mmHg 65%
    14:00 +8°C° 0 mm 2 m/S 700 mmHg 64%
    15:00 +8°C° 0 mm 2 m/S 699 mmHg 63%
    16:00 +8°C° 0 mm 1 m/S 700 mmHg 67%
    17:00 +7°C° 0 mm 1 m/S 700 mmHg 71%
    18:00 +7°C° 0 mm 1 m/S 700 mmHg 75%
    19:00 +6°C° 0 mm 1 m/S 700 mmHg 77%
    20:00 +6°C° 0 mm 1 m/S 701 mmHg 79%
    21:00 +6°C° 0 mm 1 m/S 701 mmHg 82%
    22:00 +5°C° 0 mm 1 m/S 701 mmHg 82%
    23:00 +5°C° 0 mm 1 m/S 701 mmHg 83%

    21 Februar, Mittwoch

    Zeit Temperatur Niederschläge Wind Luftdruck Luftfeuchtigkeit
    00:00 +5°C° 0 mm 1 m/S 701 mmHg 83%
    01:00 +5°C° 0 mm 1 m/S 701 mmHg 84%
    02:00 +4°C° 0 mm 1 m/S 701 mmHg 84%
    03:00 +4°C° 0 mm 1 m/S 701 mmHg 84%
    04:00 +4°C° 0 mm 1 m/S 701 mmHg 84%
    05:00 +4°C° 0 mm 1 m/S 701 mmHg 84%
    06:00 +4°C° 0 mm 1 m/S 701 mmHg 84%
    07:00 +4°C° 0 mm 1 m/S 701 mmHg 81%
    08:00 +5°C° 0 mm 1 m/S 701 mmHg 78%
    09:00 +5°C° 0 mm 1 m/S 701 mmHg 75%
    10:00 +6°C° 0 mm 1 m/S 701 mmHg 71%
    11:00 +6°C° 0 mm 2 m/S 701 mmHg 67%
    12:00 +7°C° 0 mm 2 m/S 700 mmHg 62%
    13:00 +7°C° 0 mm 2 m/S 700 mmHg 61%
    14:00 +8°C° 0 mm 2 m/S 700 mmHg 59%
    15:00 +8°C° 0 mm 2 m/S 699 mmHg 57%
    16:00 +8°C° 0 mm 2 m/S 700 mmHg 61%
    17:00 +8°C° 0 mm 1 m/S 700 mmHg 65%
    18:00 +7°C° 0 mm 1 m/S 700 mmHg 68%
    19:00 +6°C° 0 mm 1 m/S 700 mmHg 71%
    20:00 +6°C° 0 mm 1 m/S 701 mmHg 73%
    21:00 +5°C° 0 mm 1 m/S 701 mmHg 75%
    22:00 +5°C° 0 mm 1 m/S 701 mmHg 77%
    23:00 +5°C° 0 mm 1 m/S 701 mmHg 78%

    22 Februar, Donnerstag

    Zeit Temperatur Niederschläge Wind Luftdruck Luftfeuchtigkeit
    00:00 +4°C° 0 mm 1 m/S 701 mmHg 79%
    01:00 +4°C° 0 mm 1 m/S 701 mmHg 80%
    02:00 +4°C° 0 mm 1 m/S 701 mmHg 82%
    03:00 +4°C° 0 mm 1 m/S 700 mmHg 83%
    04:00 +4°C° 0 mm 1 m/S 700 mmHg 82%
    05:00 +3°C° 0 mm 1 m/S 700 mmHg 82%
    06:00 +3°C° 0 mm 1 m/S 700 mmHg 82%
    07:00 +4°C° 0 mm 1 m/S 700 mmHg 77%
    08:00 +5°C° 0 mm 1 m/S 700 mmHg 72%
    09:00 +6°C° 0 mm 1 m/S 700 mmHg 67%
    10:00 +7°C° 0 mm 1 m/S 700 mmHg 63%
    11:00 +9°C° 0 mm 1 m/S 699 mmHg 59%
    12:00 +10°C° 0 mm 1 m/S 699 mmHg 55%
    13:00 +10°C° 0 mm 1 m/S 699 mmHg 53%
    14:00 +11°C° 0 mm 1 m/S 698 mmHg 52%
    15:00 +11°C° 0 mm 1 m/S 698 mmHg 51%
    16:00 +10°C° 0 mm 1 m/S 698 mmHg 55%
    17:00 +9°C° 0 mm 1 m/S 699 mmHg 58%
    18:00 +9°C° 0 mm 1 m/S 699 mmHg 62%
    19:00 +7°C° 0 mm 0 m/S 699 mmHg 64%
    20:00 +7°C° 0 mm 0 m/S 699 mmHg 65%
    21:00 +6°C° 0 mm 0 m/S 700 mmHg 67%
    22:00 +6°C° 0 mm 0 m/S 700 mmHg 68%
    23:00 +7°C° 0 mm 1 m/S 700 mmHg 69%

    23 Februar, Freitag

    Zeit Temperatur Niederschläge Wind Luftdruck Luftfeuchtigkeit
    00:00 +6°C° 0 mm 1 m/S 700 mmHg 69%
    01:00 +6°C° 0 mm 1 m/S 700 mmHg 70%
    02:00 +6°C° 0 mm 1 m/S 700 mmHg 70%
    03:00 +5°C° 0 mm 1 m/S 700 mmHg 71%
    04:00 +4°C° 0 mm 0 m/S 700 mmHg 72%
    05:00 +4°C° 0 mm 0 m/S 700 mmHg 72%
    06:00 +3°C° 0 mm 0 m/S 700 mmHg 73%
    07:00 +5°C° 0 mm 1 m/S 700 mmHg 70%
    08:00 +6°C° 0 mm 1 m/S 700 mmHg 67%
    09:00 +7°C° 0 mm 1 m/S 700 mmHg 64%
    10:00 +8°C° 0 mm 1 m/S 700 mmHg 60%
    11:00 +9°C° 0 mm 1 m/S 700 mmHg 57%
    12:00 +9°C° 0 mm 2 m/S 700 mmHg 54%
    13:00 +10°C° 0 mm 2 m/S 699 mmHg 52%
    14:00 +10°C° 0 mm 2 m/S 699 mmHg 51%
    15:00 +10°C° 0 mm 2 m/S 699 mmHg 50%
    16:00 +9°C° 0 mm 2 m/S 699 mmHg 54%
    17:00 +9°C° 0 mm 2 m/S 700 mmHg 57%
    18:00 +8°C° 0 mm 2 m/S 700 mmHg 61%
    19:00 +8°C° 0 mm 1 m/S 700 mmHg 64%
    20:00 +7°C° 0 mm 1 m/S 700 mmHg 68%
    21:00 +7°C° 0 mm 1 m/S 701 mmHg 71%
    22:00 +6°C° 0 mm 1 m/S 701 mmHg 73%
    23:00 +6°C° 0 mm 1 m/S 701 mmHg 75%
    Mehr zeigen